Preview of NWS' New Version of Forecast
This preview is not operational and should not be used for support decisions.

Regional Weather Roundup (RWR)

Issued by National Weather Service (NWS)

                            
000
ASCA42 TJSJ 211410
RWRPR 
PUERTO RICO/U.S. VIRGIN ISLANDS HOURLY WEATHER ROUNDUP
NATIONAL WEATHER SERVICE SAN JUAN PR
1000 AM AST TUE MAY 21 2019

PRZ001>002-007>008-010-211500-
PUERTO RICO
  
CITY           SKY/WX    TMP DP  RH WIND       PRES   REMARKS
SAN JUAN LMM   MOSUNNY   86  72  62 E10       29.98R HX  92           
AGUADILLA      SUNNY     82  72  69 E7        29.99R                  
CEIBA          MOSUNNY   88  73  62 E14       30.00S HX  96           
$$

VIZ001>002-211500-
U.S. VIRGIN ISLANDS
  
CITY           SKY/WX    TMP DP  RH WIND       PRES   REMARKS
CHARLOTTE AMA  SUNNY     84  72  65 SE15      29.99R                  
CHRISTIANSTED  MOSUNNY   84  72  65 E17       30.00R                  
$$

HOURLY WEATHER ROUNDUP FOR THE NEWS MEDIA
  
CITY           SKY/WX    TMP DP  RH WIND       PRES   REMARKS
ORLANDO        FAIR      81  70  69 S5        30.00R                  
NEW YORK       FAIR      60  39  45 NW18G32   29.94R                  
NEWARK         FAIR      61  35  37 NW22G29   29.95R                  
CHICAGO        CLOUDY    48  43  82 E17       30.12R                  
HARTFORD       FAIR      60  43  53 W17G26    29.78S                  
BOSTON         FAIR      65  37  35 W15G26    29.75F                  
DALLAS         CLOUDY    69  62  78 SW6       29.64S                  
PHILADELPHIA   PTSUNNY   64  41  42 NW18      29.99S                  
LOS ANGELES    CLOUDY    58  51  78 SW3       29.93S                  
WASHINGTON DC  FAIR      62  43  49 NW16      30.07R